Location: Batang Balui
(2.7000°N, 113.7833°E)
Time: 15:11:59
(UTC+00:00)

Cosmos 2333 Rocket - Pass Details

Date: 08 February 2023
Orbit: 837 x 864 km, 70.8° (Epoch: 23 March)

Event Time Altitude Azimuth Distance (km) Brightness Sun altitude
Exits shadow 21:14:08 22° 341° (NNW) 1,805 3.6 -21.2°
Maximum altitude 21:18:00 82° 255° (WSW) 874 2.1 -20.3°
Drops below altitude 10° 21:23:46 10° 167° (SSE) 2,498 5.0 -18.9°
Sets 21:26:13 0° 166° (SSE) 3,434 5.8 -18.3°
